Tracking 19219 objects as of 18-Jul-2018
HD Live streaming from Space Station
objects crossing your sky now

GSTAR 4

Track GSTAR 4 now!
GSTAR 4 is classified as:


NORAD ID: 20946
Int'l Code: 1990-100B
Perigee: 36,080.3 km
Apogee: 36,144.0 km
Inclination: 12.2 °
Period: 1,452.4 minutes
Semi major axis: 42483 km
RCS: 8.7599 m2 (large)
Launch date: November 20, 1990
Source: United States (US)
Launch site: FRENCH GUIANA (FRGUI)
aabbcc
Your satellite tracking list
Your tracking list is empty




NASA's NSSDC Master Catalog

Two Line Element Set (TLE):
1 20946U 90100B   18198.84003243 -.00000248 +00000-0 +00000-0 0  9997
2 20946 012.1855 031.5286 0007492 281.0357 274.3949 00.99146568018148
Source of the keplerian elements: AFSPC